Weather History for Chariton, IA

Change the Weather History Date:

Tuesday, October 29, 2013

  Actual Average Record
Temperature  
Mean Temperature 49 °F -  
Max Temperature 57 °F 60 °F 82 °F (1950)
Min Temperature 41 °F 35 °F 11 °F (1980)
Degree Days  
Heating Degree Days 16    
Moisture  
Dew Point 45 °F    
Average Humidity 82    
Maximum Humidity 100    
Minimum Humidity 67    
Precipitation  
Precipitation 0.00 in - - ()
Sea Level Pressure  
Sea Level Pressure 30.09 in    
Wind  
Wind Speed 11 mph (ESE)    
Max Wind Speed 15 mph    
Max Gust Speed 20 mph    
Visibility 7 miles    
Events      
Averages and records for this station are not official NWS values.
T = Trace of Precipitation, MM = Missing Value Source: NWS Daily Summary

Daily Weather History Graph

Daily Weather History Graph

Search for Another Location

Airport:

Trip Planner

Search our weather history database for the weather conditions in past years. The results will help you decide how hot, cold, wet, or windy it might be!

Date:

Astronomy

Oct. 29, 2013 Rise Set
Actual Time 7:41 AM CDT 6:12 PM CDT
Civil Twilight 7:12 AM CDT 6:40 PM CDT
Nautical Twilight 6:40 AM CDT 7:13 PM CDT
Astronomical Twilight 6:08 AM CDT 7:45 PM CDT
Moon 2:29 AM CDT (10/29) 3:28 PM CDT (10/29)
Length of Visible Light 11h 28m
Length of Day
10h 31m
Waning Crescent, 25% of the Moon is Illuminated
Oct 29
Waning Crescent
Nov 3
New
Nov 9
First Quarter
Nov 17
Full
Nov 25
Last Quarter

Hourly Weather History & Observations

Time (CDT) Temp. Windchill Dew Point Humidity Pressure Visibility Wind Dir Wind Speed Gust Speed Precip Events Conditions
12:15 AM 41.0 °F 36.4 °F 35.6 °F 81% 30.25 in 10.0 mi NE 6.9 mph - N/A   Partly Cloudy
12:35 AM 41.0 °F 36.4 °F 35.6 °F 81% 30.26 in 10.0 mi NE 6.9 mph - N/A   Mostly Cloudy
12:55 AM 41.0 °F 35.2 °F 35.6 °F 81% 30.24 in 10.0 mi ENE 9.2 mph - N/A   Overcast
1:15 AM 41.0 °F 34.7 °F 37.4 °F 87% 30.23 in 10.0 mi East 10.4 mph - N/A   Overcast
1:35 AM 41.0 °F 34.3 °F 37.4 °F 87% 30.22 in 10.0 mi East 11.5 mph - N/A   Overcast
1:55 AM 41.0 °F 34.7 °F 37.4 °F 87% 30.22 in 10.0 mi East 10.4 mph - N/A   Overcast
2:15 AM 41.0 °F 33.9 °F 37.4 °F 87% 30.21 in 10.0 mi East 12.7 mph - N/A   Overcast
2:35 AM 42.8 °F 36.2 °F 37.4 °F 81% 30.21 in 10.0 mi East 12.7 mph - N/A   Overcast
2:55 AM 42.8 °F 36.2 °F 37.4 °F 81% 30.21 in 10.0 mi East 12.7 mph - N/A   Overcast
3:15 AM 42.8 °F 35.8 °F 37.4 °F 81% 30.19 in 10.0 mi East 13.8 mph - N/A   Overcast
3:35 AM 42.8 °F 35.8 °F 37.4 °F 81% 30.19 in 10.0 mi East 13.8 mph 19.6 mph N/A   Overcast
3:55 AM 42.8 °F 36.2 °F 37.4 °F 81% 30.18 in 10.0 mi East 12.7 mph - N/A   Overcast
4:15 AM 42.8 °F 35.8 °F 37.4 °F 81% 30.17 in 10.0 mi East 13.8 mph - N/A   Overcast
9:55 AM 44.6 °F 38.1 °F 39.2 °F 81% 30.15 in 7.0 mi ESE 13.8 mph - N/A   Mostly Cloudy
10:15 AM 46.4 °F 40.4 °F 39.2 °F 76% 30.15 in 7.0 mi ESE 13.8 mph 19.6 mph N/A   Partly Cloudy
10:35 AM 46.4 °F 40.1 °F 41.0 °F 81% 30.14 in 8.0 mi ESE 15.0 mph - N/A   Partly Cloudy
10:55 AM 48.2 °F - 41.0 °F 76% 30.14 in 8.0 mi East 11.5 mph 17.3 mph N/A   Mostly Cloudy
11:15 AM 50.0 °F - 41.0 °F 71% 30.14 in 8.0 mi ESE 8.1 mph 15.0 mph N/A   Overcast
11:35 AM 50.0 °F - 42.8 °F 76% 30.14 in 8.0 mi East 10.4 mph - N/A   Mostly Cloudy
11:55 AM 51.8 °F - 42.8 °F 71% 30.13 in 8.0 mi ESE 10.4 mph - N/A   Overcast
12:15 PM 51.8 °F - 42.8 °F 71% 30.13 in 9.0 mi ESE 9.2 mph - N/A   Overcast
12:35 PM 53.6 °F - 44.6 °F 72% 30.12 in 9.0 mi ESE 11.5 mph - N/A   Overcast
12:55 PM 53.6 °F - 44.6 °F 72% 30.11 in 9.0 mi SE 9.2 mph - N/A   Overcast
1:15 PM 53.6 °F - 44.6 °F 72% 30.10 in 9.0 mi SE 11.5 mph - N/A   Overcast
1:35 PM 53.6 °F - 44.6 °F 72% 30.08 in 8.0 mi SE 12.7 mph - N/A   Overcast
1:55 PM 55.4 °F - 46.4 °F 72% 30.07 in 8.0 mi SE 9.2 mph - N/A   Overcast
2:15 PM 55.4 °F - 46.4 °F 72% 30.06 in 9.0 mi ESE 12.7 mph - N/A   Overcast
2:35 PM 57.2 °F - 46.4 °F 67% 30.04 in 9.0 mi ESE 11.5 mph - N/A   Overcast
2:55 PM 55.4 °F - 46.4 °F 72% 30.05 in 9.0 mi ESE 9.2 mph - N/A   Overcast
3:15 PM 55.4 °F - 46.4 °F 72% 30.04 in 9.0 mi ESE 9.2 mph - N/A   Overcast
3:35 PM 55.4 °F - 46.4 °F 72% 30.03 in 9.0 mi ESE 9.2 mph - N/A   Overcast
3:55 PM 55.4 °F - 46.4 °F 72% 30.02 in 9.0 mi ESE 12.7 mph - N/A   Overcast
4:15 PM 57.2 °F - 46.4 °F 67% 30.02 in 9.0 mi East 10.4 mph 17.3 mph N/A   Overcast
4:35 PM 57.2 °F - 46.4 °F 67% 30.02 in 9.0 mi ESE 8.1 mph 15.0 mph N/A   Overcast
4:55 PM 57.2 °F - 48.2 °F 72% 30.02 in 9.0 mi ESE 10.4 mph - N/A   Overcast
5:15 PM 57.2 °F - 48.2 °F 72% 30.02 in 9.0 mi ESE 8.1 mph - N/A   Overcast
5:35 PM 57.2 °F - 48.2 °F 72% 30.01 in 10.0 mi ESE 10.4 mph - N/A   Overcast
5:55 PM 57.2 °F - 48.2 °F 72% 30.01 in 9.0 mi ESE 10.4 mph - N/A   Overcast
6:15 PM 57.2 °F - 50.0 °F 77% 30.01 in 8.0 mi SE 11.5 mph - N/A   Overcast
6:35 PM 55.4 °F - 51.8 °F 88% 30.01 in 7.0 mi ESE 12.7 mph - N/A   Overcast
6:55 PM 55.4 °F - 51.8 °F 88% 30.01 in 5.0 mi ESE 13.8 mph - N/A   Overcast
7:15 PM 55.4 °F - 51.8 °F 88% 30.02 in 4.0 mi ESE 10.4 mph 17.3 mph N/A   Overcast
7:35 PM 53.6 °F - 51.8 °F 94% 30.03 in 5.0 mi ESE 10.4 mph 16.1 mph N/A   Overcast
7:55 PM 53.6 °F - 51.8 °F 94% 30.02 in 4.0 mi ESE 13.8 mph - N/A   Overcast
8:15 PM 53.6 °F - 51.8 °F 94% 30.03 in 4.0 mi ESE 13.8 mph - N/A   Overcast
8:35 PM 53.6 °F - 51.8 °F 94% 30.02 in 4.0 mi ESE 13.8 mph - N/A   Overcast
8:55 PM 51.8 °F - 51.8 °F 100% 30.02 in 4.0 mi SE 11.5 mph - N/A   Overcast
9:15 PM 51.8 °F - 51.8 °F 100% 30.02 in 3.0 mi SE 11.5 mph - N/A   Overcast
9:35 PM 51.8 °F - 50.0 °F 94% 30.02 in 1.8 mi ESE 11.5 mph - N/A   Overcast
9:55 PM 51.8 °F - 51.8 °F 100% 30.02 in 1.8 mi ESE 12.7 mph - N/A   Overcast
10:15 PM 51.8 °F - 51.8 °F 100% 30.02 in 1.2 mi SE 11.5 mph 19.6 mph N/A   Overcast
10:35 PM 51.8 °F - 51.8 °F 100% 30.02 in 0.8 mi SE 11.5 mph 18.4 mph N/A   Overcast
10:55 PM 51.8 °F - 51.8 °F 100% 30.02 in 1.0 mi ESE 12.7 mph - N/A   Overcast
11:15 PM 51.8 °F - 51.8 °F 100% 30.02 in 1.0 mi SE 10.4 mph 16.1 mph N/A   Overcast
11:35 PM 51.8 °F - 51.8 °F 100% 30.02 in 1.0 mi SE 9.2 mph - N/A   Light Drizzle
11:55 PM 51.8 °F - 51.8 °F 100% 30.01 in 1.5 mi SE 9.2 mph - N/A   Overcast